| time (UTC) | temp C | wind direction | speed KPH | gust KPH | rain 1hr cm | rain 24hr cm | rain mn cm | humidity % | barometer mb |
| 20260510050023 | 24 | 190 | 0.0 | 0.0 | 0.00 | 0.28 | 0.00 | 100 | 1016.3 |
| 20260510045519 | 24 | 190 | 0.0 | 0.0 | 0.00 | 0.28 | 0.00 | 100 | 1016.3 |
| 20260510045016 | 24 | 190 | 0.0 | 0.0 | 0.00 | 0.28 | 0.00 | 100 | 1016.3 |
| 20260510044517 | 24 | 190 | 0.0 | 0.0 | 0.00 | 0.28 | 0.00 | 100 | 1016.2 |
| 20260510044019 | 24 | 190 | 0.0 | 0.0 | 0.00 | 0.28 | 0.00 | 100 | 1016.2 |
| 20260510043517 | 24 | 190 | 0.0 | 0.0 | 0.00 | 0.28 | 0.00 | 100 | 1016.2 |
| 20260510043014 | 24 | 190 | 0.0 | 0.0 | 0.00 | 0.28 | 0.00 | 100 | 1016.3 |
| 20260510042514 | 25 | 190 | 0.0 | 0.0 | 0.00 | 0.28 | 0.00 | 100 | 1016.4 |
| 20260510042014 | 25 | 190 | 0.0 | 0.0 | 0.00 | 0.28 | 0.00 | 100 | 1016.5 |
| 20260510041516 | 24 | 190 | 0.0 | 0.0 | 0.00 | 0.28 | 0.00 | 100 | 1016.4 |
| 20260510041012 | 25 | 190 | 0.0 | 0.0 | 0.00 | 0.28 | 0.00 | 100 | 1016.5 |
| 20260510040511 | 25 | 190 | 0.0 | 0.0 | 0.00 | 0.28 | 0.00 | 100 | 1016.5 |
| 20260510040010 | 25 | 190 | 0.0 | 0.0 | 0.00 | 0.28 | 0.00 | 100 | 1016.5 |
| 20260510035510 | 25 | 190 | 0.0 | 0.0 | 0.00 | 0.28 | 0.00 | 100 | 1016.5 |
| 20260510035007 | 25 | 190 | 0.0 | 3.2 | 0.00 | 0.28 | 0.00 | 100 | 1016.6 |
| 20260510034507 | 25 | 190 | 0.0 | 4.8 | 0.00 | 0.28 | 0.28 | 100 | 1016.6 |
| 20260510034007 | 25 | 166 | 0.0 | 3.2 | 0.00 | 0.28 | 0.28 | 100 | 1016.5 |
| 20260510033506 | 25 | 155 | 0.0 | 0.0 | 0.00 | 0.28 | 0.28 | 100 | 1016.4 |
| 20260510033005 | 24 | 155 | 0.0 | 0.0 | 0.00 | 0.28 | 0.28 | 100 | 1016.4 |
| 20260510032506 | 24 | 155 | 0.0 | 0.0 | 0.00 | 0.28 | 0.28 | 100 | 1016.3 |
| 20260510032005 | 24 | 155 | 0.0 | 9.7 | 0.00 | 0.28 | 0.28 | 100 | 1016.2 |
| 20260510031505 | 24 | 155 | 3.2 | 9.7 | 0.00 | 0.28 | 0.28 | 100 | 1016.3 |
| 20260510031003 | 24 | 190 | 1.6 | 4.8 | 0.00 | 0.28 | 0.28 | 100 | 1016.2 |
| 20260510030503 | 25 | 311 | 0.0 | 1.6 | 0.00 | 0.28 | 0.28 | 100 | 1016.1 |
| 20260510030103 | 25 | 310 | 0.0 | 3.2 | 0.00 | 0.28 | 0.28 | 100 | 1016.0 |
| 20260510025504 | 25 | 310 | 0.0 | 1.6 | 0.00 | 0.28 | 0.28 | 100 | 1015.9 |
| 20260510025005 | 25 | 310 | 0.0 | 4.8 | 0.00 | 0.28 | 0.28 | 100 | 1016.0 |
| 20260510024504 | 25 | 311 | 0.0 | 4.8 | 0.00 | 0.28 | 0.28 | 100 | 1015.8 |
| 20260510024004 | 25 | 312 | 0.0 | 4.8 | 0.00 | 0.28 | 0.28 | 100 | 1015.8 |
| 20260510023502 | 25 | 348 | 1.6 | 6.4 | 0.03 | 0.28 | 0.28 | 100 | 1015.8 |
| 20260510023002 | 24 | 337 | 3.2 | 6.4 | 0.05 | 0.28 | 0.28 | 100 | 1015.8 |
| 20260510022504 | 25 | 348 | 0.0 | 6.4 | 0.28 | 0.28 | 0.28 | 100 | 1015.7 |
| 20260510022002 | 24 | 351 | 1.6 | 6.4 | 0.28 | 0.28 | 0.28 | 100 | 1015.5 |
| 20260510021502 | 24 | 12 | 0.0 | 6.4 | 0.28 | 0.28 | 0.28 | 100 | 1015.5 |
| 20260510021001 | 24 | 355 | 1.6 | 8.0 | 0.28 | 0.28 | 0.28 | 100 | 1015.4 |
| 20260510020502 | 24 | 342 | 1.6 | 8.0 | 0.28 | 0.28 | 0.28 | 100 | 1015.4 |
| 20260510020002 | 24 | 350 | 0.0 | 9.7 | 0.28 | 0.28 | 0.28 | 100 | 1015.3 |
| 20260510015502 | 24 | 348 | 3.2 | 9.7 | 0.28 | 0.28 | 0.28 | 100 | 1015.3 |
| 20260510015003 | 25 | 346 | 3.2 | 9.7 | 0.28 | 0.28 | 0.28 | 100 | 1015.4 |
| 20260510014501 | 25 | 330 | 0.0 | 14.5 | 0.28 | 0.28 | 0.28 | 100 | 1015.4 |
| 20260510014001 | 25 | 343 | 6.4 | 14.5 | 0.28 | 0.28 | 0.28 | 100 | 1015.3 |
| 20260510013501 | 25 | 24 | 3.2 | 19.3 | 0.25 | 0.25 | 0.25 | 100 | 1015.3 |
| 20260510013010 | 26 | 309 | 3.2 | 19.3 | 0.20 | 0.20 | 0.20 | 100 | 1015.5 |
| 20260510012500 | 28 | 325 | 8.0 | 17.7 | 0.00 | 0.00 | 0.00 | 100 | 1015.5 |
| 20260510012101 | 28 | 316 | 8.0 | 16.1 | 0.00 | 0.00 | 0.00 | 100 | 1015.1 |
| 20260510011625 | 28 | 355 | 1.6 | 14.5 | 0.00 | 0.00 | 0.00 | 100 | 1014.8 |
| 20260510011100 | 28 | 26 | 3.2 | 11.3 | 0.00 | 0.00 | 0.00 | 100 | 1014.6 |
| 20260510010600 | 28 | 291 | 1.6 | 9.7 | 0.00 | 0.00 | 0.00 | 100 | 1014.6 |
| 20260510010110 | 28 | 332 | 1.6 | 9.7 | 0.00 | 0.00 | 0.00 | 100 | 1014.6 |
| 20260510005601 | 28 | 316 | 3.2 | 20.9 | 0.00 | 0.00 | 0.00 | 100 | 1014.3 |
| 20260510005059 | 28 | 160 | 9.7 | 20.9 | 0.00 | 0.00 | 0.00 | 100 | 1014.0 |
| 20260510004600 | 27 | 153 | 6.4 | 22.5 | 0.00 | 0.00 | 0.00 | 100 | 1013.5 |
| 20260510004059 | 27 | 154 | 8.0 | 22.5 | 0.00 | 0.00 | 0.00 | 100 | 1013.4 |
| 20260510003601 | 27 | 137 | 9.7 | 19.3 | 0.00 | 0.00 | 0.00 | 100 | 1013.2 |
| 20260510003107 | 27 | 155 | 6.4 | 22.5 | 0.00 | 0.00 | 0.00 | 100 | 1013.2 |
| 20260510002558 | 27 | 165 | 11.3 | 24.1 | 0.00 | 0.00 | 0.00 | 100 | 1013.2 |
| 20260510002502 | 27 | 173 | 11.3 | 24.1 | 0.00 | 0.00 | 0.00 | 100 | 1013.2 |
| 20260510002058 | 27 | 188 | 11.3 | 19.3 | 0.00 | 0.00 | 0.00 | 100 | 1013.2 |
| 20260510001558 | 27 | 129 | 11.3 | 22.5 | 0.00 | 0.00 | 0.00 | 100 | 1013.1 |
| 20260510001057 | 28 | 148 | 6.4 | 22.5 | 0.00 | 0.00 | 0.00 | 100 | 1013.1 |
| 20260510000556 | 28 | 167 | 11.3 | 17.7 | 0.00 | 0.00 | 0.00 | 100 | 1013.1 |
| 20260510000059 | 28 | 184 | 8.0 | 24.1 | 0.00 | 0.00 | 0.00 | 100 | 1013.0 |
| 20260509235557 | 28 | 147 | 9.7 | 24.1 | 0.00 | 0.00 | 0.00 | 100 | 1012.9 |
| 20260509235057 | 28 | 155 | 8.0 | 20.9 | 0.00 | 0.00 | 0.00 | 100 | 1013.0 |
| 20260509234606 | 28 | 159 | 8.0 | 22.5 | 0.00 | 0.00 | 0.00 | 100 | 1012.9 |
| 20260509234056 | 28 | 174 | 8.0 | 22.5 | 0.00 | 0.00 | 0.00 | 100 | 1013.0 |
| 20260509233556 | 28 | 173 | 8.0 | 27.4 | 0.00 | 0.00 | 0.00 | 100 | 1012.9 |
| 20260509233103 | 28 | 138 | 11.3 | 30.6 | 0.00 | 0.00 | 0.00 | 100 | 1012.8 |
| 20260509232558 | 28 | 167 | 12.9 | 30.6 | 0.00 | 0.00 | 0.00 | 100 | 1012.7 |
| 20260509232056 | 28 | 150 | 12.9 | 27.4 | 0.00 | 0.00 | 0.00 | 100 | 1012.7 |
| 20260509231603 | 28 | 142 | 9.7 | 24.1 | 0.00 | 0.00 | 0.00 | 100 | 1012.8 |
| 20260509231055 | 28 | 141 | 11.3 | 24.1 | 0.00 | 0.00 | 0.00 | 100 | 1012.7 |
| 20260509230555 | 28 | 144 | 8.0 | 30.6 | 0.00 | 0.00 | 0.00 | 100 | 1012.8 |
| 20260509230057 | 28 | 150 | 16.1 | 29.0 | 0.00 | 0.00 | 0.00 | 100 | 1012.7 |
| 20260509225554 | 28 | 213 | 14.5 | 29.0 | 0.00 | 0.00 | 0.00 | 100 | 1012.9 |
| 20260509225502 | 28 | 162 | 14.5 | 29.0 | 0.00 | 0.00 | 0.00 | 100 | 1012.9 |
| 20260509225059 | 28 | 176 | 9.7 | 25.7 | 0.00 | 0.00 | 0.00 | 100 | 1012.8 |
| 20260509224604 | 28 | 169 | 17.7 | 30.6 | 0.00 | 0.00 | 0.00 | 100 | 1012.7 |
| 20260509224057 | 28 | 171 | 9.7 | 32.2 | 0.00 | 0.00 | 0.00 | 100 | 1012.7 |
| 20260509223554 | 28 | 159 | 11.3 | 32.2 | 0.00 | 0.00 | 0.00 | 100 | 1012.7 |
| 20260509223055 | 28 | 134 | 16.1 | 32.2 | 0.00 | 0.00 | 0.00 | 100 | 1012.7 |
| 20260509222556 | 28 | 163 | 12.9 | 35.4 | 0.00 | 0.00 | 0.00 | 100 | 1012.7 |
| 20260509222054 | 28 | 151 | 14.5 | 35.4 | 0.00 | 0.00 | 0.00 | 100 | 1012.7 |
| 20260509221553 | 29 | 157 | 14.5 | 30.6 | 0.00 | 0.00 | 0.00 | 100 | 1012.7 |
| 20260509221053 | 29 | 155 | 16.1 | 30.6 | 0.00 | 0.00 | 0.00 | 100 | 1012.8 |
| 20260509220552 | 29 | 155 | 12.9 | 27.4 | 0.00 | 0.00 | 0.00 | 100 | 1012.9 |
| 20260509220053 | 29 | 186 | 9.7 | 35.4 | 0.00 | 0.00 | 0.00 | 100 | 1012.8 |
| 20260509215552 | 29 | 118 | 14.5 | 35.4 | 0.00 | 0.00 | 0.00 | 100 | 1012.8 |
| 20260509214551 | 29 | 115 | 19.3 | 35.4 | 0.00 | 0.00 | 0.00 | 100 | 1012.8 |
| 20260509214051 | 28 | 134 | 17.7 | 35.4 | 0.00 | 0.00 | 0.00 | 100 | 1012.8 |
| 20260509213551 | 29 | 154 | 14.5 | 27.4 | 0.00 | 0.00 | 0.00 | 100 | 1012.8 |
| 20260509213102 | 29 | 138 | 17.7 | 27.4 | 0.00 | 0.00 | 0.00 | 100 | 1012.9 |
| 20260509212550 | 29 | 165 | 9.7 | 29.0 | 0.00 | 0.00 | 0.00 | 100 | 1012.8 |
| 20260509212050 | 29 | 168 | 16.1 | 33.8 | 0.00 | 0.00 | 0.00 | 100 | 1012.8 |
| 20260509211611 | 29 | 159 | 14.5 | 33.8 | 0.00 | 0.00 | 0.00 | 100 | 1012.8 |
| 20260509211051 | 29 | 148 | 11.3 | 30.6 | 0.00 | 0.00 | 0.00 | 100 | 1012.9 |
| 20260509210549 | 29 | 149 | 19.3 | 30.6 | 0.00 | 0.00 | 0.00 | 100 | 1012.8 |
| 20260509210056 | 28 | 161 | 14.5 | 35.4 | 0.00 | 0.00 | 0.00 | 100 | 1012.9 |
| 20260509205550 | 29 | 163 | 17.7 | 35.4 | 0.00 | 0.00 | 0.00 | 100 | 1012.9 |
| 20260509205048 | 28 | 133 | 17.7 | 32.2 | 0.00 | 0.00 | 0.00 | 100 | 1013.0 |
| 20260509204559 | 29 | 171 | 19.3 | 32.2 | 0.00 | 0.00 | 0.00 | 100 | 1012.9 |
| 20260509204048 | 30 | 123 | 9.7 | 20.9 | 0.00 | 0.00 | 0.00 | 100 | 1013.0 |
| 20260509203547 | 30 | 180 | 9.7 | 29.0 | 0.00 | 0.00 | 0.00 | 100 | 1012.9 |
| 20260509203057 | 29 | 140 | 14.5 | 29.0 | 0.00 | 0.00 | 0.00 | 100 | 1012.9 |
| 20260509202548 | 29 | 174 | 14.5 | 27.4 | 0.00 | 0.00 | 0.00 | 100 | 1013.0 |
| 20260509202047 | 29 | 140 | 16.1 | 27.4 | 0.00 | 0.00 | 0.00 | 100 | 1013.1 |
| 20260509201544 | 30 | 119 | 11.3 | 24.1 | 0.00 | 0.00 | 0.00 | 100 | 1013.0 |
| 20260509201044 | 30 | 127 | 11.3 | 22.5 | 0.00 | 0.00 | 0.00 | 100 | 1013.1 |
| 20260509200544 | 30 | 126 | 11.3 | 22.5 | 0.00 | 0.00 | 0.00 | 100 | 1013.2 |
| 20260509200044 | 30 | 130 | 8.0 | 25.7 | 0.00 | 0.00 | 0.00 | 100 | 1013.2 |
| 20260509195543 | 29 | 147 | 14.5 | 29.0 | 0.00 | 0.00 | 0.00 | 100 | 1013.2 |
| 20260509195043 | 29 | 156 | 14.5 | 29.0 | 0.00 | 0.00 | 0.00 | 100 | 1013.2 |
| 20260509194545 | 29 | 224 | 12.9 | 22.5 | 0.00 | 0.00 | 0.00 | 100 | 1013.4 |
| 20260509194043 | 29 | 182 | 12.9 | 24.1 | 0.00 | 0.00 | 0.00 | 100 | 1013.3 |
| 20260509193543 | 30 | 185 | 9.7 | 30.6 | 0.00 | 0.00 | 0.00 | 100 | 1013.4 |
| 20260509193054 | 29 | 182 | 16.1 | 32.2 | 0.00 | 0.00 | 0.00 | 100 | 1013.4 |
| 20260509192542 | 29 | 134 | 16.1 | 32.2 | 0.00 | 0.00 | 0.00 | 100 | 1013.5 |
| 20260509192040 | 29 | 136 | 14.5 | 30.6 | 0.00 | 0.00 | 0.00 | 100 | 1013.5 |
| 20260509191540 | 30 | 142 | 16.1 | 25.7 | 0.00 | 0.00 | 0.00 | 100 | 1013.7 |
| 20260509191039 | 30 | 150 | 11.3 | 22.5 | 0.00 | 0.00 | 0.00 | 100 | 1013.8 |
| 20260509190541 | 30 | 128 | 11.3 | 27.4 | 0.00 | 0.00 | 0.00 | 100 | 1013.7 |
| 20260509190046 | 30 | 138 | 9.7 | 27.4 | 0.00 | 0.00 | 0.00 | 100 | 1013.8 |
| 20260509185538 | 30 | 151 | 8.0 | 30.6 | 0.00 | 0.00 | 0.00 | 100 | 1013.9 |
| 20260509185037 | 30 | 120 | 14.5 | 30.6 | 0.00 | 0.00 | 0.00 | 100 | 1013.9 |
| 20260509184537 | 30 | 146 | 16.1 | 27.4 | 0.00 | 0.00 | 0.00 | 100 | 1014.0 |
| 20260509184037 | 30 | 130 | 9.7 | 29.0 | 0.00 | 0.00 | 0.00 | 100 | 1014.0 |
| 20260509183607 | 29 | 146 | 11.3 | 30.6 | 0.00 | 0.00 | 0.00 | 100 | 1013.9 |
| 20260509183038 | 29 | 169 | 14.5 | 29.0 | 0.00 | 0.00 | 0.00 | 100 | 1013.9 |
| 20260509182536 | 29 | 138 | 11.3 | 24.1 | 0.00 | 0.00 | 0.00 | 100 | 1014.0 |
| 20260509182036 | 30 | 146 | 12.9 | 29.0 | 0.00 | 0.00 | 0.00 | 100 | 1014.0 |
| 20260509181535 | 29 | 147 | 14.5 | 29.0 | 0.00 | 0.00 | 0.00 | 100 | 1014.1 |
| 20260509181035 | 29 | 127 | 12.9 | 27.4 | 0.00 | 0.00 | 0.00 | 100 | 1014.1 |
| 20260509180534 | 29 | 149 | 16.1 | 29.0 | 0.00 | 0.00 | 0.00 | 100 | 1014.2 |
| 20260509180034 | 29 | 149 | 16.1 | 29.0 | 0.00 | 0.00 | 0.00 | 100 | 1014.3 |
| 20260509175532 | 30 | 179 | 11.3 | 25.7 | 0.00 | 0.00 | 0.00 | 100 | 1014.3 |
| 20260509175035 | 30 | 135 | 9.7 | 27.4 | 0.00 | 0.00 | 0.00 | 100 | 1014.3 |
| 20260509174534 | 30 | 159 | 12.9 | 27.4 | 0.00 | 0.00 | 0.00 | 100 | 1014.4 |
| 20260509174033 | 30 | 146 | 4.8 | 19.3 | 0.00 | 0.00 | 0.00 | 100 | 1014.4 |
| 20260509173532 | 30 | 148 | 6.4 | 24.1 | 0.00 | 0.00 | 0.00 | 100 | 1014.3 |
| 20260509173031 | 30 | 171 | 11.3 | 24.1 | 0.00 | 0.00 | 0.00 | 100 | 1014.3 |
| 20260509172534 | 30 | 121 | 11.3 | 24.1 | 0.00 | 0.00 | 0.00 | 100 | 1014.5 |
| 20260509172031 | 30 | 116 | 9.7 | 22.5 | 0.00 | 0.00 | 0.00 | 100 | 1014.6 |
| 20260509171531 | 31 | 174 | 6.4 | 22.5 | 0.00 | 0.00 | 0.00 | 100 | 1014.6 |
| 20260509171030 | 32 | 143 | 9.7 | 22.5 | 0.00 | 0.00 | 0.00 | 100 | 1014.6 |
| 20260509170528 | 32 | 162 | 8.0 | 19.3 | 0.00 | 0.00 | 0.00 | 100 | 1014.6 |
| 20260509170030 | 32 | 213 | 9.7 | 22.5 | 0.00 | 0.00 | 0.00 | 100 | 1014.6 |
| 20260509165527 | 32 | 188 | 4.8 | 19.3 | 0.00 | 0.00 | 0.00 | 100 | 1014.6 |
| 20260509165023 | 32 | 267 | 8.0 | 19.3 | 0.00 | 0.00 | 0.00 | 100 | 1014.7 |
| 20260509164522 | 32 | 234 | 8.0 | 19.3 | 0.00 | 0.00 | 0.00 | 100 | 1014.8 |
| 20260509164021 | 32 | 188 | 8.0 | 19.3 | 0.00 | 0.00 | 0.00 | 100 | 1014.9 |
| 20260509163519 | 32 | 180 | 8.0 | 19.3 | 0.00 | 0.00 | 0.00 | 100 | 1014.9 |
| 20260509163023 | 31 | 207 | 6.4 | 19.3 | 0.00 | 0.00 | 0.00 | 100 | 1015.1 |
| 20260509162518 | 31 | 198 | 9.7 | 25.7 | 0.00 | 0.00 | 0.00 | 100 | 1015.2 |
| 20260509162018 | 31 | 175 | 8.0 | 25.7 | 0.00 | 0.00 | 0.00 | 100 | 1015.1 |
| 20260509161518 | 31 | 211 | 6.4 | 20.9 | 0.00 | 0.00 | 0.00 | 100 | 1015.3 |
| 20260509161014 | 31 | 200 | 4.8 | 16.1 | 0.00 | 0.00 | 0.00 | 100 | 1015.2 |
| 20260509160514 | 31 | 204 | 8.0 | 16.1 | 0.00 | 0.00 | 0.00 | 100 | 1015.3 |
| 20260509160014 | 31 | 204 | 4.8 | 16.1 | 0.00 | 0.00 | 0.00 | 100 | 1015.5 |
| 20260509155510 | 31 | 238 | 8.0 | 16.1 | 0.00 | 0.00 | 0.00 | 100 | 1015.6 |
| 20260509155008 | 31 | 165 | 8.0 | 17.7 | 0.00 | 0.00 | 0.00 | 100 | 1015.5 |
| 20260509154507 | 31 | 246 | 6.4 | 17.7 | 0.00 | 0.00 | 0.00 | 100 | 1015.6 |
| 20260509154006 | 31 | 198 | 4.8 | 17.7 | 0.00 | 0.00 | 0.00 | 100 | 1015.8 |
| 20260509153507 | 31 | 230 | 8.0 | 14.5 | 0.00 | 0.00 | 0.00 | 100 | 1015.9 |
| 20260509153009 | 31 | 207 | 6.4 | 16.1 | 0.00 | 0.00 | 0.00 | 100 | 1015.9 |
| 20260509152501 | 31 | 233 | 6.4 | 17.7 | 0.00 | 0.00 | 0.00 | 100 | 1016.0 |
| 20260509152101 | 30 | 175 | 6.4 | 20.9 | 0.00 | 0.00 | 0.00 | 100 | 1016.0 |
| 20260509151559 | 30 | 267 | 9.7 | 20.9 | 0.00 | 0.00 | 0.00 | 100 | 1016.0 |
| 20260509151056 | 30 | 178 | 8.0 | 16.1 | 0.00 | 0.00 | 0.00 | 100 | 1015.9 |
| 20260509150557 | 30 | 238 | 6.4 | 17.7 | 0.00 | 0.00 | 0.00 | 100 | 1016.0 |
| 20260509150053 | 30 | 226 | 6.4 | 27.4 | 0.00 | 0.00 | 0.00 | 100 | 1015.9 |
| 20260509145552 | 30 | 232 | 8.0 | 27.4 | 0.00 | 0.00 | 0.00 | 100 | 1016.0 |
| 20260509145051 | 30 | 246 | 6.4 | 16.1 | 0.00 | 0.00 | 0.00 | 100 | 1015.9 |
| 20260509144549 | 30 | 202 | 4.8 | 19.3 | 0.00 | 0.00 | 0.00 | 100 | 1015.9 |
| 20260509144047 | 29 | 194 | 8.0 | 19.3 | 0.00 | 0.00 | 0.00 | 100 | 1015.8 |
| 20260509143547 | 29 | 225 | 6.4 | 17.7 | 0.00 | 0.00 | 0.00 | 100 | 1015.8 |
| 20260509143050 | 29 | 207 | 6.4 | 19.3 | 0.00 | 0.00 | 0.00 | 100 | 1015.8 |
| 20260509142544 | 29 | 231 | 8.0 | 19.3 | 0.00 | 0.00 | 0.00 | 100 | 1015.8 |
| 20260509142043 | 28 | 246 | 4.8 | 14.5 | 0.00 | 0.00 | 0.00 | 100 | 1015.8 |
| 20260509141544 | 28 | 240 | 4.8 | 22.5 | 0.00 | 0.00 | 0.00 | 100 | 1015.7 |
| 20260509141040 | 28 | 211 | 6.4 | 22.5 | 0.00 | 0.00 | 0.00 | 100 | 1015.8 |
| 20260509140539 | 28 | 239 | 6.4 | 16.1 | 0.00 | 0.00 | 0.00 | 100 | 1015.9 |
| 20260509140043 | 28 | 202 | 3.2 | 16.1 | 0.00 | 0.00 | 0.00 | 100 | 1016.0 |
| 20260509135537 | 27 | 218 | 6.4 | 12.9 | 0.00 | 0.00 | 0.00 | 100 | 1016.1 |
| 20260509135037 | 27 | 252 | 4.8 | 11.3 | 0.00 | 0.00 | 0.00 | 100 | 1016.1 |
| 20260509134545 | 27 | 192 | 3.2 | 14.5 | 0.00 | 0.00 | 0.00 | 100 | 1016.1 |
| 20260509134034 | 27 | 224 | 4.8 | 14.5 | 0.00 | 0.00 | 0.00 | 100 | 1016.2 |
| 20260509133534 | 27 | 205 | 4.8 | 14.5 | 0.00 | 0.00 | 0.00 | 100 | 1016.2 |
| 20260509133033 | 26 | 254 | 6.4 | 12.9 | 0.00 | 0.00 | 0.00 | 100 | 1016.2 |
| 20260509132532 | 26 | 232 | 1.6 | 11.3 | 0.00 | 0.00 | 0.00 | 100 | 1016.1 |
| 20260509132031 | 26 | 234 | 4.8 | 14.5 | 0.00 | 0.00 | 0.00 | 100 | 1016.0 |
| 20260509131533 | 26 | 233 | 3.2 | 12.9 | 0.00 | 0.00 | 0.00 | 100 | 1016.1 |
| 20260509131030 | 26 | 232 | 4.8 | 12.9 | 0.00 | 0.00 | 0.00 | 100 | 1015.9 |
| 20260509130529 | 26 | 207 | 1.6 | 12.9 | 0.00 | 0.00 | 0.00 | 100 | 1015.8 |
| 20260509130029 | 26 | 225 | 3.2 | 16.1 | 0.00 | 0.00 | 0.00 | 100 | 1015.8 |
| 20260509125528 | 25 | 235 | 4.8 | 16.1 | 0.00 | 0.00 | 0.00 | 100 | 1015.7 |
| 20260509125028 | 25 | 209 | 3.2 | 12.9 | 0.00 | 0.00 | 0.00 | 100 | 1015.7 |
| 20260509124527 | 25 | 240 | 4.8 | 12.9 | 0.00 | 0.00 | 0.00 | 100 | 1015.6 |
| 20260509124029 | 25 | 244 | 4.8 | 12.9 | 0.00 | 0.00 | 0.00 | 100 | 1015.7 |
| 20260509123527 | 25 | 215 | 3.2 | 12.9 | 0.00 | 0.00 | 0.00 | 100 | 1015.6 |
| 20260509123026 | 25 | 204 | 1.6 | 12.9 | 0.00 | 0.00 | 0.00 | 100 | 1015.4 |
| 20260509122527 | 24 | 237 | 4.8 | 12.9 | 0.00 | 0.00 | 0.00 | 100 | 1015.5 |
| 20260509122028 | 24 | 200 | 3.2 | 9.7 | 0.00 | 0.00 | 0.00 | 100 | 1015.3 |
| 20260509121529 | 24 | 192 | 4.8 | 9.7 | 0.00 | 0.00 | 0.00 | 100 | 1015.3 |
| 20260509121026 | 24 | 184 | 3.2 | 11.3 | 0.00 | 0.00 | 0.00 | 100 | 1015.3 |
| 20260509120526 | 24 | 234 | 4.8 | 11.3 | 0.00 | 0.00 | 0.00 | 100 | 1015.3 |
| 20260509120027 | 24 | 172 | 4.8 | 8.0 | 0.00 | 0.00 | 0.00 | 100 | 1015.3 |
| 20260509115526 | 24 | 223 | 4.8 | 11.3 | 0.00 | 0.00 | 0.00 | 100 | 1015.2 |
| 20260509115025 | 24 | 167 | 4.8 | 11.3 | 0.00 | 0.00 | 0.00 | 100 | 1015.2 |
| 20260509114525 | 24 | 209 | 0.0 | 8.0 | 0.00 | 0.00 | 0.00 | 100 | 1015.2 |
| 20260509114032 | 23 | 236 | 1.6 | 8.0 | 0.00 | 0.00 | 0.00 | 100 | 1015.2 |
| 20260509113526 | 23 | 230 | 1.6 | 6.4 | 0.00 | 0.00 | 0.00 | 100 | 1015.1 |
| 20260509113027 | 23 | 241 | 0.0 | 4.8 | 0.00 | 0.00 | 0.00 | 100 | 1015.1 |
| 20260509112525 | 23 | 206 | 0.0 | 0.0 | 0.00 | 0.00 | 0.00 | 100 | 1014.9 |
| 20260509112025 | 23 | 204 | 0.0 | 0.0 | 0.00 | 0.00 | 0.00 | 100 | 1015.1 |
| 20260509111525 | 23 | 204 | 0.0 | 0.0 | 0.00 | 0.00 | 0.00 | 100 | 1015.1 |
| 20260509111025 | 23 | 191 | 0.0 | 0.0 | 0.00 | 0.00 | 0.00 | 100 | 1015.0 |
| 20260509110525 | 23 | 191 | 0.0 | 0.0 | 0.00 | 0.00 | 0.00 | 100 | 1015.0 |
| 20260509110024 | 23 | 191 | 0.0 | 0.0 | 0.00 | 0.00 | 0.00 | 100 | 1014.9 |
| 20260509105529 | 23 | 190 | 0.0 | 0.0 | 0.00 | 0.00 | 0.00 | 100 | 1015.0 |
| 20260509105024 | 23 | 190 | 0.0 | 0.0 | 0.00 | 0.00 | 0.00 | 100 | 1014.9 |
| 20260509104524 | 23 | 169 | 0.0 | 0.0 | 0.00 | 0.00 | 0.00 | 100 | 1014.8 |
| 20260509104023 | 23 | 169 | 0.0 | 0.0 | 0.00 | 0.00 | 0.00 | 100 | 1014.8 |
| 20260509103524 | 23 | 169 | 0.0 | 0.0 | 0.00 | 0.00 | 0.00 | 100 | 1014.8 |
| 20260509103026 | 23 | 169 | 0.0 | 0.0 | 0.00 | 0.00 | 0.00 | 100 | 1014.8 |
| 20260509102525 | 23 | 169 | 0.0 | 0.0 | 0.00 | 0.00 | 0.00 | 100 | 1014.7 |
| 20260509102025 | 23 | 169 | 0.0 | 0.0 | 0.00 | 0.00 | 0.00 | 100 | 1014.7 |
| 20260509101524 | 23 | 169 | 0.0 | 0.0 | 0.00 | 0.00 | 0.00 | 100 | 1014.7 |
| 20260509101023 | 23 | 169 | 0.0 | 0.0 | 0.00 | 0.00 | 0.00 | 100 | 1014.7 |
| 20260509100522 | 23 | 169 | 0.0 | 0.0 | 0.00 | 0.00 | 0.00 | 100 | 1014.6 |
| 20260509100023 | 23 | 169 | 0.0 | 0.0 | 0.00 | 0.00 | 0.00 | 100 | 1014.6 |
| 20260509095523 | 23 | 169 | 0.0 | 0.0 | 0.00 | 0.00 | 0.00 | 100 | 1014.5 |
| 20260509095021 | 23 | 175 | 0.0 | 0.0 | 0.00 | 0.00 | 0.00 | 100 | 1014.4 |
| 20260509094522 | 23 | 175 | 0.0 | 1.6 | 0.00 | 0.00 | 0.00 | 100 | 1014.5 |
| 20260509094022 | 23 | 174 | 0.0 | 12.9 | 0.00 | 0.00 | 0.00 | 100 | 1014.5 |
| 20260509093524 | 23 | 173 | 1.6 | 12.9 | 0.00 | 0.00 | 0.00 | 100 | 1014.5 |
| 20260509093021 | 23 | 146 | 3.2 | 9.7 | 0.00 | 0.00 | 0.00 | 100 | 1014.6 |
| 20260509092521 | 23 | 162 | 1.6 | 9.7 | 0.00 | 0.00 | 0.00 | 100 | 1014.5 |
| 20260509092020 | 24 | 177 | 1.6 | 6.4 | 0.00 | 0.00 | 0.00 | 100 | 1014.6 |
| 20260509091528 | 24 | 180 | 1.6 | 6.4 | 0.00 | 0.00 | 0.00 | 100 | 1014.6 |
| 20260509091019 | 23 | 226 | 0.0 | 4.8 | 0.00 | 0.00 | 0.00 | 100 | 1014.7 |
| 20260509090518 | 23 | 227 | 0.0 | 4.8 | 0.00 | 0.00 | 0.00 | 100 | 1014.7 |
| 20260509090018 | 23 | 230 | 0.0 | 1.6 | 0.00 | 0.00 | 0.00 | 100 | 1014.7 |
| 20260509085517 | 23 | 230 | 0.0 | 0.0 | 0.00 | 0.00 | 0.00 | 100 | 1014.8 |
| 20260509085017 | 23 | 230 | 0.0 | 0.0 | 0.00 | 0.00 | 0.00 | 100 | 1014.9 |
| 20260509084524 | 23 | 230 | 0.0 | 3.2 | 0.00 | 0.00 | 0.00 | 100 | 1014.9 |
| 20260509084016 | 23 | 230 | 0.0 | 3.2 | 0.00 | 0.00 | 0.00 | 100 | 1015.0 |
| 20260509083520 | 23 | 229 | 0.0 | 4.8 | 0.00 | 0.00 | 0.00 | 100 | 1015.0 |
| 20260509083017 | 23 | 229 | 0.0 | 4.8 | 0.00 | 0.00 | 0.00 | 100 | 1015.0 |
| 20260509082519 | 23 | 219 | 0.0 | 3.2 | 0.00 | 0.00 | 0.00 | 100 | 1014.9 |
| 20260509082017 | 23 | 219 | 0.0 | 3.2 | 0.00 | 0.00 | 0.00 | 100 | 1015.0 |
| 20260509081517 | 23 | 219 | 0.0 | 0.0 | 0.00 | 0.00 | 0.00 | 100 | 1015.0 |
| 20260509081017 | 23 | 219 | 0.0 | 0.0 | 0.00 | 0.00 | 0.00 | 100 | 1014.9 |
| 20260509080515 | 23 | 219 | 0.0 | 0.0 | 0.00 | 0.00 | 0.00 | 100 | 1014.9 |
| 20260509080023 | 23 | 219 | 0.0 | 0.0 | 0.00 | 0.00 | 0.00 | 100 | 1014.9 |
| 20260509075516 | 23 | 219 | 0.0 | 0.0 | 0.00 | 0.00 | 0.00 | 100 | 1014.8 |
| 20260509075020 | 23 | 219 | 0.0 | 0.0 | 0.00 | 0.00 | 0.00 | 100 | 1014.9 |
| 20260509074516 | 23 | 219 | 0.0 | 0.0 | 0.00 | 0.00 | 0.00 | 100 | 1014.9 |
| 20260509074014 | 23 | 219 | 0.0 | 0.0 | 0.00 | 0.00 | 0.00 | 100 | 1014.9 |
| 20260509073514 | 23 | 219 | 0.0 | 3.2 | 0.00 | 0.00 | 0.00 | 100 | 1014.8 |
| 20260509073035 | 23 | 219 | 0.0 | 3.2 | 0.00 | 0.00 | 0.00 | 100 | 1014.8 |
| 20260509072515 | 23 | 219 | 0.0 | 0.0 | 0.00 | 0.00 | 0.00 | 100 | 1014.8 |
| 20260509072014 | 23 | 219 | 0.0 | 0.0 | 0.00 | 0.00 | 0.00 | 100 | 1014.8 |
| 20260509071514 | 23 | 219 | 0.0 | 1.6 | 0.00 | 0.00 | 0.00 | 100 | 1014.8 |
| 20260509071013 | 23 | 219 | 0.0 | 1.6 | 0.00 | 0.00 | 0.00 | 100 | 1014.8 |
| 20260509070512 | 23 | 219 | 0.0 | 4.8 | 0.00 | 0.00 | 0.00 | 100 | 1014.8 |
| 20260509070019 | 23 | 219 | 0.0 | 4.8 | 0.00 | 0.00 | 0.00 | 100 | 1015.0 |
| 20260509065515 | 23 | 221 | 0.0 | 3.2 | 0.00 | 0.00 | 0.00 | 100 | 1014.9 |
| 20260509065013 | 23 | 221 | 0.0 | 3.2 | 0.00 | 0.00 | 0.00 | 100 | 1014.9 |
| 20260509064511 | 23 | 229 | 0.0 | 6.4 | 0.00 | 0.00 | 0.00 | 100 | 1014.9 |
| 20260509064012 | 23 | 229 | 1.6 | 6.4 | 0.00 | 0.00 | 0.00 | 100 | 1014.9 |
| 20260509063510 | 23 | 234 | 0.0 | 4.8 | 0.00 | 0.00 | 0.00 | 100 | 1015.1 |
| 20260509063010 | 23 | 232 | 0.0 | 0.0 | 0.00 | 0.00 | 0.00 | 100 | 1015.0 |
| 20260509062513 | 23 | 232 | 0.0 | 0.0 | 0.00 | 0.00 | 0.00 | 100 | 1015.0 |
| 20260509062009 | 23 | 232 | 0.0 | 3.2 | 0.00 | 0.00 | 0.00 | 100 | 1015.1 |
| 20260509061509 | 23 | 232 | 0.0 | 4.8 | 0.00 | 0.00 | 0.00 | 100 | 1015.2 |
| 20260509061011 | 23 | 232 | 1.6 | 6.4 | 0.00 | 0.00 | 0.00 | 100 | 1015.3 |
| 20260509060509 | 23 | 232 | 1.6 | 8.0 | 0.00 | 0.00 | 0.00 | 100 | 1015.2 |
| 20260509060015 | 23 | 227 | 0.0 | 6.4 | 0.00 | 0.00 | 0.00 | 100 | 1015.3 |
| 20260509055508 | 23 | 227 | 0.0 | 6.4 | 0.00 | 0.00 | 0.00 | 100 | 1015.4 |
| 20260509055009 | 23 | 224 | 1.6 | 6.4 | 0.00 | 0.00 | 0.00 | 100 | 1015.4 |
| 20260509054506 | 23 | 231 | 0.0 | 14.5 | 0.00 | 0.00 | 0.00 | 100 | 1015.5 |
| 20260509054005 | 23 | 231 | 3.2 | 14.5 | 0.00 | 0.00 | 0.00 | 100 | 1015.5 |
| 20260509053505 | 24 | 229 | 3.2 | 14.5 | 0.00 | 0.00 | 0.00 | 100 | 1015.5 |
| 20260509053010 | 24 | 232 | 6.4 | 14.5 | 0.00 | 0.00 | 0.00 | 100 | 1015.6 |
| 20260509052503 | 24 | 269 | 1.6 | 14.5 | 0.00 | 0.00 | 0.00 | 100 | 1015.5 |
| 20260509052001 | 25 | 254 | 4.8 | 11.3 | 0.00 | 0.00 | 0.00 | 100 | 1015.7 |
| 20260509051501 | 25 | 240 | 3.2 | 12.9 | 0.00 | 0.00 | 0.00 | 100 | 1015.6 |
| 20260509051103 | 25 | 234 | 6.4 | 12.9 | 0.00 | 0.00 | 0.00 | 100 | 1015.7 |
| 20260509050559 | 25 | 238 | 1.6 | 8.0 | 0.00 | 0.00 | 0.00 | 100 | 1015.7 |